Location: Unspecified
(49.9820°N, 20.4363°E)
Time: 15:34:33
(UTC+01:00)

ISS - Pass Details

Date: 10 November 2018
Orbit: 401 x 408 km, 51.6° (Epoch: 16 November)

Event Time Altitude Azimuth Distance (km) Brightness Sun altitude
Exits shadow 04:26:02 56° 103° (ESE) 487 -3.2 -22.0°
Drops below altitude 10° 04:28:43 10° 106° (ESE) 1,463 0.1 -21.5°
Sets 04:30:48 0° 107° (ESE) 2,323 1.4 -21.2°
